Weather History for Rhinelander, WI

Change the Weather History Date:

Tuesday, April 16, 2013

  Actual Average Record
Temperature  
Mean Temperature 36 °F 42 °F  
Max Temperature 43 °F 54 °F 84 °F (2002)
Min Temperature 29 °F 30 °F 9 °F (2014)
Degree Days  
Heating Degree Days 29 23  
Month to date heating degree days 539 425  
Since 1 July heating degree days 8268 8220  
Cooling Degree Days 0 0  
Month to date cooling degree days 0 0  
Year to date cooling degree days 0 0  
Moisture  
Dew Point 25 °F    
Average Humidity 60    
Maximum Humidity 75    
Minimum Humidity 45    
Precipitation  
Precipitation T in 0.09 in 1.65 in (2003)
Month to date precipitation 2.04 1.28  
Year to date precipitation 6.85 4.89  
Snow  
Snow T in - 3.30 in (1985)
Month to date snowfall 10.6  
Since 1 July snowfall 79.4  
Snow Depth 13.00 in    
Sea Level Pressure  
Sea Level Pressure 30.13 in    
Wind  
Wind Speed 7 mph (West)    
Max Wind Speed 17 mph    
Max Gust Speed 24 mph    
Visibility 10 miles    
Events      
T = Trace of Precipitation, MM = Missing Value Source: NWS Daily Summary

Daily Weather History Graph

Daily Weather History Graph

Search for Another Location

Airport:

Trip Planner

Search our weather history database for the weather conditions in past years. The results will help you decide how hot, cold, wet, or windy it might be!

Date:

Astronomy

Apr. 16, 2013 Rise Set
Actual Time 6:10 AM CDT 7:46 PM CDT
Civil Twilight 5:38 AM CDT 8:17 PM CDT
Nautical Twilight 5:01 AM CDT 8:55 PM CDT
Astronomical Twilight 4:20 AM CDT 9:36 PM CDT
Moon 10:20 AM CDT (4/16) 12:51 AM CDT (4/16)
Length of Visible Light 14h 38m
Length of Day
13h 36m
Waxing Crescent, 33% of the Moon is Illuminated
Apr 16
Waxing Crescent
Apr 18
First Quarter
Apr 25
Full
May 2
Last Quarter
May 9
New

Hourly Weather History & Observations

Time (CDT) Temp. Windchill Dew Point Humidity Pressure Visibility Wind Dir Wind Speed Gust Speed Precip Events Conditions
12:07 AM 33.8 °F 25.8 °F 24.8 °F 70% 29.86 in 10.0 mi WSW 10.4 mph - N/A   Mostly Cloudy
12:53 AM 34.0 °F 26.6 °F 25.0 °F 70% 29.92 in 10.0 mi WSW 9.2 mph - N/A   Overcast
1:53 AM 34.0 °F 25.0 °F 25.0 °F 70% 29.92 in 10.0 mi West 12.7 mph - N/A   Overcast
2:53 AM 34.0 °F 26.6 °F 25.0 °F 70% 29.92 in 10.0 mi West 9.2 mph - N/A   Overcast
3:53 AM 34.0 °F 26.6 °F 26.1 °F 73% 29.93 in 10.0 mi West 9.2 mph - N/A   Overcast
4:53 AM 34.0 °F 28.0 °F 26.1 °F 73% 29.97 in 10.0 mi WSW 6.9 mph - N/A   Overcast
5:53 AM 33.1 °F 26.1 °F 27.0 °F 78% 29.99 in 10.0 mi West 8.1 mph - N/A   Overcast
7:53 AM 34.0 °F 25.0 °F 27.0 °F 75% 30.06 in 10.0 mi West 12.7 mph - N/A   Overcast
8:53 AM 35.1 °F 26.9 °F 28.0 °F 76% 30.08 in 10.0 mi West 11.5 mph - 0.00 in   Overcast
9:06 AM 35.6 °F 27.1 °F 26.6 °F 70% 30.03 in 10.0 mi West 12.7 mph 19.6 mph N/A   Overcast
9:30 AM 35.6 °F 28.6 °F 26.6 °F 70% 30.04 in 10.0 mi WNW 9.2 mph - N/A   Overcast
9:53 AM 36.0 °F 27.5 °F 26.1 °F 67% 30.11 in 10.0 mi West 12.7 mph 24.2 mph N/A   Overcast
10:53 AM 37.0 °F 28.9 °F 26.1 °F 65% 30.14 in 10.0 mi West 12.7 mph - N/A   Overcast
11:19 AM 37.4 °F 32.1 °F 26.6 °F 65% 30.10 in 10.0 mi WNW 6.9 mph - N/A   Overcast
11:53 AM 39.0 °F 32.3 °F 25.0 °F 57% 30.15 in 10.0 mi WNW 10.4 mph 19.6 mph N/A   Overcast
12:53 PM 39.9 °F 33.4 °F 25.0 °F 55% 30.17 in 10.0 mi West 10.4 mph - N/A   Overcast
1:53 PM 41.0 °F 34.3 °F 25.0 °F 53% 30.18 in 10.0 mi West 11.5 mph - N/A   Overcast
2:53 PM 42.1 °F 37.1 °F 25.0 °F 51% 30.21 in 10.0 mi NW 8.1 mph - N/A   Overcast
3:53 PM 43.0 °F 38.8 °F 24.1 °F 47% 30.22 in 10.0 mi WNW 6.9 mph - N/A   Overcast
4:53 PM 43.0 °F 39.5 °F 24.1 °F 47% 30.24 in 10.0 mi West 5.8 mph - N/A   Overcast
5:53 PM 42.1 °F 38.4 °F 23.0 °F 47% 30.26 in 10.0 mi WNW 5.8 mph - N/A   Mostly Cloudy
6:53 PM 42.1 °F 37.7 °F 23.0 °F 47% 30.27 in 10.0 mi North 6.9 mph - N/A   Partly Cloudy
7:53 PM 39.9 °F 37.8 °F 21.9 °F 49% 30.29 in 10.0 mi North 3.5 mph - N/A   Clear
8:53 PM 37.0 °F - 21.9 °F 54% 30.33 in 10.0 mi Calm Calm - N/A   Clear
9:53 PM 33.1 °F - 21.9 °F 64% 30.35 in 10.0 mi Calm Calm - N/A   Clear
10:53 PM 33.1 °F 27.7 °F 23.0 °F 66% 30.37 in 10.0 mi NNE 5.8 mph - N/A   Clear
11:53 PM 30.9 °F - 23.0 °F 72% 30.39 in 10.0 mi Calm Calm - N/A   Clear